Location: Unspecified
(43.8044°N, 11.0278°E)
Time: 13:48:21
(UTC+02:00)

Okean 3 - Visible Passes

Search period start: 27 May 2015 00:00
Search period end: 06 June 2015 00:00
Orbit: 581 x 605 km, 82.5° (Epoch: 26 May)

Date Brightness Start Highest point End Pass type
(mag) Time Alt. Az. Time Alt. Az. Time Alt. Az.
27 May 6.8 03:47:57 10° NE 03:48:46 11° ENE 03:49:49 10° ENE visible
28 May 6.4 03:55:39 10° NNE 03:58:11 16° ENE 04:00:52 10° ESE visible
29 May 6.0 04:04:11 10° NNE 04:07:33 23° ENE 04:10:58 10° SE visible
30 May 5.2 04:12:59 10° N 04:16:52 33° ENE 04:20:43 10° SE visible
31 May 4.4 04:21:56 10° N 04:26:06 50° ENE 04:30:14 10° SSE visible
01 Jun 3.6 04:31:00 10° N 04:35:18 79° E 04:39:31 10° SSE visible
02 Jun 6.5 03:05:08 10° NE 03:06:29 11° ENE 03:08:03 10° E visible
02 Jun 3.5 04:40:11 10° NNW 04:44:26 67° W 04:48:36 10° S visible
03 Jun 6.2 03:13:09 10° NNE 03:15:54 17° ENE 03:18:45 10° ESE visible
03 Jun 3.9 04:49:28 10° NNW 04:53:32 43° W 04:57:31 10° SSW visible
04 Jun 5.6 03:21:45 10° NNE 03:25:14 24° ENE 03:28:45 10° SE visible
04 Jun 4.5 04:58:55 10° NNW 05:02:35 28° W 05:06:10 10° SSW visible
05 Jun 4.9 03:30:35 10° N 03:34:31 36° ENE 03:38:26 10° SE visible
